Powrót do katalogu

STARLINK-31441

AktywnyŁącznośćVLEO
NORAD 60091·PAYLOAD·🇺🇸 United States

Wystrzelony Jun 23, 2024 z Cape Canaveral Space Force Station

Loading…

Następne Przeloty (najbliższe 24 godziny)

TLE

ŚwieżeSource: CelesTrak SupGP

Epoka: Sep 15, 2026, 02:38 UTC

1 60091C 24117A   26258.11020833 -.00039439  00000+0 -11651-2 0  2585
2 60091  53.1578 234.9680 0001439  92.3688 148.1204 15.34413605    15

Śledź STARLINK-31441 w czasie rzeczywistym z AllMySat

Download on the App Store